Starlink 3146

operational
NORAD ID: 49414 Int'l Des: 2021-104 Owner: SPXS Country: US Constellation: starlink
LEOCIRCULAR

关于 Starlink 3146

正在加载描述...

实时位置

正在加载3D地球...

即将过境

高度历史

Altitude vs Time

uPlot chart will show altitude changes over time

两行轨道根数

1 49414U 21104G 25352.10784082 -.00000645 00000-0 -22441-4 0 9991
2 49414 53.2157 235.3556 0001454 84.6461 275.4697 15.08838140226311
Epoch: Dec 18, 2025 • Age: 19 hours

当前状态

高度 556.7 km
速度 7.58 km/s
星下点 -47.01°S, 130.56°E
发射日期 Nov 13, 2021
运行时间 4 years
类型 internet

技术详情

分类 Payload
质量 290.00 kg
干质量 270.00 kg
总质量 290.00 kg
长度 0.20 m
直径 2.80 m
跨度 9.00 m
形状 Box + pan
制造商 SPXS
平台类型 Starlink
阶段状态 In Orbit
所有者/国家 SPXS/US

大型星座

Loading constellations...